Location: St. Louis
(38.6270°N, 90.1994°W)
Time: 20:53:31
(UTC-06:00)

Vanguard 3 - Pass Details

Date: 02 December 2021
Orbit: 508 x 3260 km, 33.3° (Epoch: 19 January)

Event Time Altitude Azimuth Distance (km) Brightness Sun altitude
Exits shadow 00:41:23 16° 119° (ESE) 5,643 11.3 -70.1°
Drops below altitude 10° 00:47:58 10° 99° (E) 6,124 11.6 -69.3°
Sets 00:54:55 0° 83° (E) 6,913 12.1 -68.4°
